Wind_Speed
43 41 41 40 36 33 32 29 29 27 25 23 21 20 19 18 19 21 23 25 20 28 26 27 20 26 28 25 26 25 26 21 14 16 31 39 30 22 36 26 26 22 23 19
47 45 42 40 36 35 33 30 29 27 26 23 22 23 20 21 22 24 23 27 32 29 24 30 29 30 23 24 25 28 27 25 16 14 25 38 37 36 36 30 24 26 25 20
49 46 43 40 37 35 34 31 30 28 27 24 22 22 22 23 25 25 24 27 28 32 32 33 31 29 26 25 27 25 24 26 21 12 23 22 30 36 40 37 29 26 24 26
46 44 42 39 37 37 34 33 31 31 29 26 24 23 22 25 26 26 26 25 28 31 35 35 31 36 28 28 27 27 27 27 24 30 28 31 18 19 30 40 37 25 23 27
44 43 40 38 37 36 34 34 33 31 30 29 27 26 26 26 29 28 29 30 32 36 36 37 27 36 30 29 30 29 29 29 33 35 24 33 39 32 35 31 32 40 41 39
47 43 40 40 40 39 35 35 35 33 34 30 30 28 26 28 35 29 32 31 29 31 38 31 33 30 30 33 24 29 31 31 37 35 32 26 39 32 28 26 28 29 34 32
47 46 44 43 43 43 40 37 35 36 31 30 27 25 29 30 38 32 35 32 31 33 27 30 30 30 30 28 30 31 32 34 38 30 25 33 28 25 29 28 26 26 32 44
49 45 43 42 42 43 40 40 42 37 34 36 32 26 29 32 36 38 32 33 30 29 30 30 29 30 30 30 29 28 28 29 32 34 31 27 26 34 37 37 34 35 35 49
41 40 41 42 43 44 41 40 41 43 39 37 36 31 34 36 33 34 32 31 29 30 30 29 27 27 26 29 25 24 26 27 30 30 30 26 28 40 44 39 39 44 45 43
40 43 43 43 43 41 40 39 40 37 37 37 37 30 39 37 33 33 30 30 29 31 29 27 23 18 26 23 22 25 25 25 28 30 33 25 35 46 46 46 39 43 47 45
44 44 43 42 40 36 38 37 38 41 41 32 25 31 34 32 33 37 31 32 21 22 24 24 24 24 23 24 23 21 20 19 21 25 26 25 38 43 46 46 43 43 44 45
46 44 43 44 41 36 34 34 40 33 33 29 33 40 35 41 37 36 31 26 22 24 23 22 24 23 22 20 22 21 20 20 21 25 27 32 33 37 37 36 38 45 47 43
43 43 41 44 42 35 38 38 35 32 33 39 33 30 30 34 29 22 25 22 22 20 20 22 21 21 21 21 24 24 25 26 28 31 33 35 37 37 37 41 41 43 48 47
41 42 46 44 37 30 31 30 26 27 28 32 33 33 34 30 28 26 22 20 21 21 22 22 21 21 20 22 22 22 29 25 29 31 35 40 40 42 41 41 43 43 43 47
41 39 33 30 23 26 30 27 22 23 29 28 26 23 25 23 25 25 22 21 21 22 21 19 20 21 19 21 21 22 25 24 28 32 34 33 38 37 37 37 41 42 40 44
32 27 23 21 23 25 20 21 21 19 19 18 22 21 24 27 28 24 21 22 23 21 19 19 18 18 21 18 19 20 22 23 26 28 28 30 32 33 32 33 37 37 38 43
13 13 17 19 20 8 9 12 12 16 18 21 20 25 28 27 25 24 24 24 23 21 21 20 20 19 18 17 17 18 19 21 24 24 24 24 25 27 25 27 32 34 35 41
9 9 6 12 10 7 8 5 6 10 18 22 28 29 27 27 26 25 25 24 22 23 22 19 20 18 20 18 19 17 19 19 20 19 20 18 18 14 15 18 26 35 34 39
11 6 4 3 0 4 6 9 12 14 20 28 27 25 25 27 26 28 26 24 26 25 24 23 21 20 17 20 19 19 19 17 18 17 16 12 10 6 12 16 16 28 34 39
6 2 2 2 3 6 7 10 13 22 28 24 21 23 22 23 26 28 27 25 27 26 27 24 23 21 22 20 19 19 18 16 16 15 13 12 11 11 13 17 24 25 26 30
12 10 6 7 7 9 12 12 11 15 13 14 17 21 22 24 23 28 28 25 26 27 27 26 23 22 25 22 19 19 18 16 15 14 14 12 16 15 14 16 20 28 29 31
6 5 5 5 5 4 5 6 8 9 11 14 17 19 21 21 23 21 23 24 24 26 24 27 23 24 24 23 21 19 19 17 15 14 12 12 12 13 13 11 13 27 23 30
4 3 2 1 2 3 5 7 8 9 10 12 15 17 18 18 21 21 21 23 26 26 25 25 23 24 27 24 24 21 20 18 18 15 15 12 11 12 13 9 6 13 19 23
5 5 5 6 5 5 6 7 9 11 12 12 14 16 17 16 17 19 18 22 23 25 24 14 22 26 27 25 25 23 21 19 18 17 17 14 12 12 11 13 10 9 12 18
7 10 10 9 10 10 12 12 12 13 13 14 15 17 16 15 17 17 20 23 23 21 15 19 27 30 28 24 25 22 22 21 20 17 17 17 15 14 12 10 10 13 16 19
7 8 10 9 10 12 13 15 17 16 16 16 18 18 18 19 21 22 22 23 18 17 19 23 25 26 27 26 24 23 25 24 22 20 19 18 18 18 17 14 12 13 12 18
7 8 8 7 8 9 12 17 16 15 22 22 25 24 23 27 24 27 24 21 20 19 19 18 16 16 21 24 25 26 28 26 26 24 21 22 21 19 20 22 22 20 17 17
Wind_Direction
316 316 315 316 314 310 311 307 297 291 290 296 289 282 280 272 270 259 244 229 216 217 222 216 208 225 222 221 224 219 217 204 236 241 226 220 204 219 226 219 215 219 213 230
313 313 311 312 307 304 302 297 292 285 285 292 285 278 271 258 260 258 249 229 215 218 209 214 217 228 220 217 219 217 215 206 199 228 237 227 227 231 230 216 212 219 217 221
309 310 309 308 303 298 296 290 285 280 278 279 277 272 265 251 251 253 242 240 230 214 224 226 229 230 224 221 223 226 222 206 199 211 224 218 227 228 231 224 228 218 214 214
305 307 305 301 298 294 292 285 279 275 274 271 274 269 259 253 245 245 243 230 221 216 223 227 228 237 227 235 229 231 232 221 215 194 241 220 203 224 229 226 217 205 210 211
299 301 298 293 292 290 286 283 279 273 268 268 268 271 259 250 249 241 238 234 228 226 226 229 231 236 239 241 235 232 232 234 233 219 231 225 225 237 234 231 221 222 195 199
298 297 294 290 288 285 282 278 275 276 267 264 257 265 258 243 243 236 236 231 236 235 235 242 240 242 241 243 239 235 235 236 242 235 234 244 237 236 240 239 238 233 220 222
295 293 291 287 288 287 282 276 276 271 279 273 273 259 251 244 241 237 234 235 237 242 244 243 245 245 244 244 243 244 242 240 239 238 230 232 243 235 235 230 236 235 233 218
293 291 290 288 287 284 280 280 272 264 266 269 266 249 251 242 238 241 229 230 237 237 238 239 242 245 246 248 243 237 236 234 235 235 236 236 236 248 238 240 233 218 238 241
289 289 291 290 286 282 277 274 278 269 265 260 261 237 240 234 237 237 234 229 234 233 232 236 238 248 244 245 242 238 235 233 236 239 234 233 239 243 252 249 245 244 248 250
287 291 289 291 290 284 274 272 277 274 258 256 262 234 240 227 230 235 230 232 228 225 226 232 227 228 233 241 240 239 241 238 237 238 239 234 235 241 244 252 251 250 248 248
287 289 290 292 292 288 277 269 273 272 250 255 238 237 247 221 227 238 230 229 222 219 221 222 223 220 241 235 237 241 231 234 240 241 240 240 245 246 246 250 255 252 251 247
284 285 285 288 287 289 282 276 274 277 263 252 242 253 250 236 228 240 242 213 202 217 220 224 228 227 240 239 230 218 228 236 240 251 240 257 259 258 254 245 247 246 247 244
284 281 282 285 283 282 282 280 264 260 267 245 254 241 251 232 239 247 218 191 206 217 217 219 225 232 226 222 229 234 247 255 262 263 260 261 260 261 261 253 251 250 244 241
282 282 282 280 280 274 270 278 262 253 248 241 243 251 250 239 228 212 188 196 208 208 216 226 227 217 221 230 243 249 259 265 268 268 266 267 264 261 260 251 247 245 245 235
291 287 285 276 264 269 271 258 247 242 234 238 238 235 231 215 197 187 191 201 203 212 223 223 212 220 228 241 248 256 269 277 279 279 275 273 270 265 258 250 243 240 241 230
286 280 284 257 268 277 241 220 214 219 232 226 227 233 214 186 186 191 198 201 207 216 214 209 213 225 232 241 253 264 273 277 284 285 285 280 270 263 259 248 238 235 235 224
270 264 275 266 255 217 191 182 203 216 214 216 221 204 188 183 193 197 200 205 212 213 207 209 215 223 233 243 254 262 278 286 295 297 295 278 273 271 250 235 234 230 228 219
290 271 324 224 223 174 165 196 245 257 227 217 188 186 184 193 201 201 200 207 212 203 201 209 219 227 239 246 256 263 275 293 298 303 299 283 277 263 224 231 234 227 228 222
329 303 284 220 192 240 252 261 247 226 204 192 176 182 197 201 202 202 206 209 209 199 208 220 227 236 245 246 257 266 274 294 304 313 308 288 275 263 240 233 236 229 231 226
11 40 133 231 259 266 256 219 194 182 183 171 185 201 202 204 206 205 211 216 215 212 219 227 235 244 248 251 256 261 269 284 301 318 315 285 280 280 267 251 239 229 226 234
53 57 86 97 127 146 155 170 179 181 171 187 208 212 211 216 214 215 217 222 226 229 232 241 242 245 247 251 252 258 265 271 286 309 320 296 278 281 271 268 244 232 235 236
57 69 84 98 113 143 176 188 202 205 215 222 222 218 219 219 225 227 228 233 236 239 240 245 243 243 251 250 249 253 259 265 272 286 305 309 289 279 284 283 256 230 235 234
4 13 352 281 222 203 197 198 199 207 210 217 220 223 225 222 230 231 232 237 237 241 242 243 247 251 253 255 253 252 255 260 265 272 279 291 296 288 280 276 241 224 222 224
311 301 285 274 267 253 245 235 227 221 218 219 222 227 231 231 234 232 231 237 240 240 247 245 241 249 253 253 250 249 250 250 258 265 263 266 278 282 281 264 247 215 217 218
293 286 286 277 270 260 255 248 238 237 226 221 227 229 225 226 227 226 228 237 238 240 242 233 238 246 251 251 248 242 244 245 251 256 259 252 257 266 274 269 261 240 226 218
308 297 292 281 270 263 259 255 245 243 239 233 230 225 221 222 225 228 231 235 238 242 232 231 245 260 261 251 248 243 242 241 248 253 248 246 248 250 256 261 262 257 251 239
310 301 298 289 274 264 253 262 256 246 228 229 236 231 234 232 252 234 232 239 253 257 251 253 263 281 284 253 247 246 242 239 243 250 254 247 243 244 247 250 254 256 254 252
Height
5830 5826 5822 5818 5814 5811 5807 5804 5801 5799 5797 5796 5793 5792 5790 5790 5789 5789 5789 5791 5795 5795 5797 5802 5805 5803 5805 5810 5813 5819 5822 5827 5832 5834 5834 5836 5841 5849 5854 5862 5869 5876 5883 5889
5820 5816 5812 5809 5805 5802 5798 5796 5793 5791 5790 5788 5786 5783 5783 5783 5782 5783 5782 5783 5786 5788 5793 5794 5796 5795 5801 5804 5807 5810 5815 5822 5829 5830 5829 5832 5836 5841 5847 5853 5862 5868 5876 5883
5809 5804 5801 5797 5795 5792 5790 5787 5785 5783 5781 5779 5778 5775 5774 5775 5775 5775 5775 5776 5780 5784 5786 5787 5790 5793 5796 5799 5802 5805 5809 5815 5821 5833 5828 5826 5828 5832 5836 5845 5851 5859 5866 5876
5797 5792 5789 5786 5783 5781 5779 5777 5774 5771 5772 5771 5769 5768 5767 5766 5768 5769 5770 5771 5774 5777 5779 5781 5784 5783 5788 5792 5796 5799 5801 5806 5811 5815 5813 5821 5824 5826 5828 5833 5840 5849 5861 5864
5784 5780 5777 5773 5771 5769 5767 5765 5764 5763 5761 5761 5761 5760 5759 5760 5758 5762 5764 5766 5768 5770 5774 5775 5778 5778 5782 5785 5789 5793 5796 5798 5801 5806 5809 5812 5814 5817 5820 5823 5829 5833 5842 5846
5771 5768 5765 5761 5758 5757 5755 5753 5752 5751 5750 5748 5748 5750 5749 5751 5749 5753 5755 5759 5761 5764 5764 5769 5771 5773 5774 5775 5783 5784 5788 5791 5792 5798 5802 5805 5806 5810 5812 5816 5819 5824 5831 5832
5756 5754 5752 5750 5746 5744 5743 5742 5741 5740 5739 5737 5737 5737 5737 5740 5740 5744 5745 5749 5752 5753 5758 5760 5763 5765 5767 5770 5773 5776 5779 5782 5784 5789 5793 5795 5800 5802 5803 5806 5811 5814 5815 5817
5743 5740 5738 5735 5733 5731 5729 5728 5727 5727 5728 5726 5727 5727 5728 5729 5730 5733 5735 5738 5743 5747 5750 5752 5754 5757 5759 5761 5765 5768 5771 5774 5777 5779 5783 5790 5792 5788 5792 5795 5800 5800 5804 5802
5729 5727 5724 5722 5718 5716 5715 5714 5713 5713 5714 5715 5714 5715 5716 5717 5720 5723 5727 5730 5733 5738 5741 5744 5748 5749 5752 5751 5756 5759 5762 5766 5769 5772 5775 5781 5780 5777 5777 5783 5786 5787 5790 5795
5716 5714 5711 5707 5704 5702 5701 5702 5701 5700 5701 5701 5705 5706 5707 5710 5712 5715 5719 5722 5725 5728 5732 5736 5741 5745 5745 5747 5750 5752 5754 5758 5760 5763 5765 5771 5766 5767 5770 5770 5776 5777 5780 5784
5702 5699 5697 5694 5691 5688 5687 5687 5687 5687 5688 5692 5693 5696 5698 5702 5705 5705 5711 5713 5716 5722 5726 5730 5734 5736 5736 5740 5742 5744 5748 5751 5753 5755 5756 5760 5756 5758 5760 5761 5762 5766 5768 5772
5688 5685 5683 5681 5679 5677 5674 5674 5674 5674 5677 5682 5685 5688 5690 5691 5694 5697 5701 5704 5711 5715 5719 5724 5726 5730 5731 5734 5736 5739 5742 5744 5746 5747 5744 5745 5746 5746 5748 5750 5750 5753 5755 5761
5673 5671 5669 5667 5665 5664 5663 5661 5660 5664 5667 5670 5675 5678 5682 5684 5687 5692 5697 5701 5705 5710 5714 5718 5721 5724 5726 5729 5731 5734 5734 5736 5737 5737 5736 5734 5734 5735 5735 5737 5738 5741 5744 5749
5658 5656 5654 5651 5651 5650 5648 5650 5651 5654 5658 5662 5667 5670 5673 5676 5680 5686 5690 5697 5701 5706 5709 5713 5716 5718 5722 5724 5726 5728 5727 5729 5727 5726 5724 5722 5721 5720 5721 5723 5725 5728 5731 5736
5645 5641 5639 5637 5639 5638 5636 5640 5642 5646 5651 5655 5659 5664 5666 5670 5676 5681 5687 5692 5697 5701 5704 5707 5710 5713 5717 5718 5720 5721 5720 5720 5717 5715 5712 5710 5706 5708 5708 5709 5712 5716 5719 5725
5632 5631 5630 5629 5629 5628 5626 5631 5636 5640 5644 5650 5653 5658 5661 5666 5672 5678 5683 5688 5693 5696 5699 5702 5706 5710 5711 5713 5714 5714 5713 5711 5708 5705 5702 5698 5695 5695 5695 5697 5701 5705 5708 5714
5624 5624 5624 5623 5623 5624 5625 5629 5634 5638 5642 5646 5649 5654 5658 5663 5669 5674 5679 5684 5688 5691 5694 5698 5701 5704 5705 5707 5708 5707 5706 5704 5700 5696 5692 5688 5686 5684 5684 5688 5692 5696 5699 5705
5622 5621 5619 5620 5621 5623 5626 5629 5633 5636 5640 5642 5646 5650 5657 5661 5666 5670 5675 5679 5683 5685 5690 5693 5696 5698 5699 5702 5701 5702 5700 5698 5694 5690 5686 5682 5679 5677 5678 5682 5684 5689 5693 5698
5620 5619 5619 5620 5622 5624 5626 5629 5631 5633 5638 5639 5644 5649 5654 5657 5661 5666 5671 5675 5678 5682 5685 5688 5691 5692 5695 5696 5696 5695 5695 5693 5689 5686 5682 5679 5677 5676 5677 5679 5681 5684 5688 5693
5618 5618 5619 5620 5622 5622 5625 5625 5628 5632 5635 5638 5645 5648 5652 5655 5658 5663 5668 5671 5674 5677 5680 5683 5685 5687 5688 5689 5690 5690 5690 5688 5686 5682 5679 5677 5675 5675 5675 5677 5678 5681 5685 5688
5621 5621 5621 5623 5624 5626 5627 5629 5632 5633 5636 5639 5643 5645 5649 5652 5656 5659 5663 5666 5669 5672 5676 5677 5679 5681 5681 5682 5684 5684 5684 5684 5682 5679 5677 5674 5673 5672 5671 5671 5671 5675 5679 5683
5625 5625 5625 5626 5627 5628 5630 5631 5633 5635 5637 5639 5640 5643 5645 5649 5652 5657 5660 5661 5665 5666 5670 5669 5673 5673 5674 5676 5678 5679 5679 5679 5678 5676 5674 5672 5671 5670 5669 5667 5666 5669 5674 5677
5626 5626 5627 5627 5628 5629 5630 5631 5632 5634 5635 5636 5638 5640 5642 5646 5648 5652 5655 5656 5659 5660 5662 5664 5666 5668 5667 5670 5672 5673 5674 5674 5673 5672 5671 5670 5669 5668 5667 5667 5666 5666 5669 5673
5626 5626 5626 5626 5627 5627 5628 5629 5630 5631 5632 5633 5635 5636 5638 5641 5644 5646 5649 5650 5652 5653 5656 5660 5659 5658 5661 5663 5664 5666 5667 5668 5668 5667 5667 5667 5667 5666 5665 5665 5666 5667 5668 5670
5624 5623 5623 5623 5623 5623 5624 5625 5626 5627 5628 5630 5631 5632 5634 5636 5638 5640 5642 5643 5645 5648 5653 5652 5650 5651 5653 5655 5657 5659 5660 5662 5662 5663 5662 5662 5663 5663 5663 5663 5664 5665 5668 5669
5621 5620 5619 5619 5619 5619 5619 5619 5620 5622 5623 5624 5626 5627 5629 5630 5632 5634 5635 5638 5640 5643 5644 5644 5645 5645 5646 5648 5649 5651 5652 5654 5656 5657 5657 5657 5658 5659 5660 5661 5661 5662 5664 5667
5619 5618 5616 5615 5615 5615 5615 5614 5615 5615 5617 5617 5618 5620 5623 5624 5624 5626 5628 5632 5634 5635 5635 5636 5637 5638 5638 5639 5641 5642 5644 5646 5648 5650 5651 5652 5652 5653 5655 5656 5657 5658 5659 5661